DLH864 EDDF-ENGM

Flight info

Callsign DLH864
Flight time 1h 39m
Altitude 35000
Route MARUN8M/25C MARUN Y150 TOLGI DCT ALASA DCT INVOL DCT SABAK L997 LUNIP
Aircraft A21N/M-SDE2E3FGIJ1LORWXYZ/HB1

Departure

Time 2026-05-04 07:01
Airport Frankfurt Main Airport (EDDF)

Arrival

Time 2026-05-04 08:40
Airport Oslo-Gardermoen International Airport (ENGM)
Time Latitude Longitude Altitude Speed Heading
2026-05-04 06:44 50.04546 8.56737 361 ft 0 kts 295°
2026-05-04 06:50 50.04529 8.56809 367 ft 2 kts 256°
2026-05-04 06:51 50.04536 8.56844 364 ft 2 kts 249°
2026-05-04 06:51 50.04548 8.56880 367 ft 2 kts 225°
2026-05-04 06:51 50.04564 8.56896 364 ft 3 kts 194°
2026-05-04 06:51 50.04549 8.56891 365 ft 2 kts 193°
2026-05-04 06:52 50.04533 8.56885 364 ft 2 kts 193°
2026-05-04 06:55 50.04526 8.56882 364 ft 3 kts 193°
2026-05-04 06:55 50.04491 8.56870 364 ft 7 kts 193°
2026-05-04 06:55 50.04442 8.56854 369 ft 9 kts 189°
2026-05-04 06:55 50.04367 8.56834 365 ft 12 kts 191°
2026-05-04 06:56 50.04284 8.56852 371 ft 14 kts 114°
2026-05-04 06:57 50.04375 8.57663 373 ft 0 kts 160°
2026-05-04 06:58 50.04369 8.57666 371 ft 2 kts 160°
2026-05-04 06:58 50.04360 8.57671 368 ft 1 kts 160°
2026-05-04 06:59 50.04337 8.57684 370 ft 7 kts 160°
2026-05-04 06:59 50.04275 8.57676 368 ft 13 kts 226°
2026-05-04 06:59 50.04200 8.57379 370 ft 60 kts 250°
2026-05-04 06:59 50.03965 8.56400 362 ft 130 kts 250°
2026-05-04 07:01 49.98301 8.47384 4709 ft 206 kts 186°
2026-05-04 07:01 49.96865 8.47210 5554 ft 208 kts 188°
2026-05-04 07:02 49.95425 8.46845 6338 ft 213 kts 197°
2026-05-04 07:02 49.94000 8.46108 6900 ft 227 kts 202°
2026-05-04 07:02 49.92478 8.45067 7355 ft 244 kts 214°
2026-05-04 07:02 49.91362 8.43140 8207 ft 244 kts 244°
2026-05-04 07:03 49.90950 8.40582 9058 ft 249 kts 266°
2026-05-04 07:03 49.91300 8.37922 9808 ft 261 kts 294°
2026-05-04 07:03 49.92286 8.35561 10692 ft 264 kts 306°
2026-05-04 07:03 49.93798 8.33692 10910 ft 299 kts 333°
2026-05-04 07:04 49.95879 8.32728 11239 ft 322 kts 342°
2026-05-04 07:04 49.98060 8.31717 11825 ft 331 kts 339°
2026-05-04 07:04 50.00244 8.30509 12583 ft 335 kts 336°
2026-05-04 07:04 50.02426 8.29182 13365 ft 340 kts 337°
2026-05-04 07:05 50.04743 8.28313 14106 ft 348 kts 352°
2026-05-04 07:05 50.07176 8.28584 14779 ft 356 kts 13°
2026-05-04 07:05 50.09532 8.29850 15473 ft 361 kts 20°
2026-05-04 07:05 50.11911 8.31273 16163 ft 366 kts 19°
2026-05-04 07:06 50.16761 8.33993 17575 ft 374 kts 18°
2026-05-04 07:06 50.19245 8.35319 18255 ft 379 kts 18°
2026-05-04 07:06 50.21758 8.36646 18836 ft 383 kts 17°
2026-05-04 07:07 50.24262 8.37964 19418 ft 387 kts 17°
2026-05-04 07:08 50.42695 8.47932 23369 ft 414 kts 17°
2026-05-04 07:09 50.45432 8.49425 23857 ft 418 kts 17°
2026-05-04 07:09 50.48199 8.50874 24301 ft 421 kts 15°
2026-05-04 07:09 50.51012 8.52231 24759 ft 424 kts 14°
2026-05-04 07:09 50.53844 8.53580 25217 ft 427 kts 14°
2026-05-04 07:10 50.56693 8.54937 25677 ft 429 kts 14°
2026-05-04 07:10 50.59558 8.56313 26120 ft 432 kts 14°
2026-05-04 07:12 50.80132 8.66224 29004 ft 451 kts 14°
2026-05-04 07:12 50.83131 8.67675 29374 ft 453 kts 14°
2026-05-04 07:12 50.86162 8.69145 29739 ft 456 kts 14°
2026-05-04 07:12 50.89170 8.70762 30073 ft 461 kts 21°
2026-05-04 07:13 50.91944 8.73374 30345 ft 467 kts 37°
2026-05-04 07:13 50.94312 8.76914 30637 ft 470 kts 45°
2026-05-04 07:13 50.96580 8.80661 30937 ft 472 kts 46°
2026-05-04 07:14 51.05783 8.95774 32165 ft 477 kts 45°
2026-05-04 07:14 51.08099 8.99561 32518 ft 477 kts 45°
2026-05-04 07:15 51.10407 9.03342 32861 ft 477 kts 45°
2026-05-04 07:15 51.12722 9.07131 33195 ft 476 kts 45°
2026-05-04 07:15 51.15030 9.10915 33525 ft 476 kts 45°
2026-05-04 07:15 51.17330 9.14701 33858 ft 475 kts 45°
2026-05-04 07:16 51.19627 9.18486 34156 ft 475 kts 45°
2026-05-04 07:16 51.21920 9.22269 34422 ft 475 kts 45°
2026-05-04 07:16 51.24218 9.26069 34638 ft 476 kts 45°
2026-05-04 07:16 51.26535 9.29832 34875 ft 476 kts 42°
2026-05-04 07:17 51.29144 9.33073 35018 ft 474 kts 30°
2026-05-04 07:17 51.32093 9.35347 35029 ft 469 kts 16°
2026-05-04 07:17 51.38396 9.37721 35035 ft 465 kts
2026-05-04 07:18 51.44737 9.39840 35038 ft 466 kts
2026-05-04 07:18 51.51083 9.42049 35029 ft 467 kts
2026-05-04 07:19 51.57388 9.44271 35017 ft 467 kts
2026-05-04 07:19 51.63780 9.46526 35004 ft 467 kts
2026-05-04 07:20 51.70088 9.48749 35001 ft 466 kts
2026-05-04 07:20 51.76415 9.50988 34983 ft 466 kts
2026-05-04 07:22 52.01805 9.55843 34976 ft 458 kts
2026-05-04 07:23 52.08164 9.56708 34977 ft 458 kts
2026-05-04 07:23 52.14514 9.57569 34998 ft 458 kts
2026-05-04 07:24 52.20869 9.58434 34983 ft 458 kts
2026-05-04 07:24 52.27225 9.59306 34986 ft 458 kts
2026-05-04 07:26 52.52687 9.62813 34994 ft 460 kts
2026-05-04 07:27 52.59073 9.63696 34989 ft 460 kts
2026-05-04 07:27 52.65460 9.64582 34991 ft 461 kts
2026-05-04 07:28 52.71850 9.65474 34971 ft 461 kts
2026-05-04 07:28 52.78245 9.66371 34976 ft 461 kts
2026-05-04 07:29 52.84640 9.67269 34975 ft 461 kts
2026-05-04 07:29 52.91036 9.68170 34984 ft 461 kts
2026-05-04 07:30 52.97434 9.69085 34972 ft 461 kts
2026-05-04 07:30 53.03828 9.69989 34982 ft 461 kts
2026-05-04 07:31 53.10214 9.70898 34970 ft 460 kts
2026-05-04 07:33 53.35750 9.74534 34991 ft 460 kts
2026-05-04 07:33 53.42130 9.75455 34978 ft 460 kts
2026-05-04 07:34 53.48453 9.76370 34994 ft 460 kts
2026-05-04 07:34 53.54832 9.77300 34995 ft 460 kts
2026-05-04 07:35 53.60168 9.78081 35018 ft 459 kts
2026-05-04 07:35 53.66522 9.79010 34996 ft 458 kts
2026-05-04 07:36 53.72871 9.79930 34989 ft 458 kts
2026-05-04 07:38 53.98251 9.83665 34960 ft 460 kts 360°
2026-05-04 07:38 54.04624 9.84612 34963 ft 460 kts 360°
2026-05-04 07:39 54.11002 9.85562 34979 ft 460 kts 360°
2026-05-04 07:39 54.17370 9.86513 34965 ft 459 kts 360°
2026-05-04 07:40 54.23740 9.87465 34972 ft 459 kts 360°
2026-05-04 07:40 54.30108 9.88425 34963 ft 459 kts 360°
2026-05-04 07:41 54.36481 9.89387 34982 ft 459 kts 360°
2026-05-04 07:41 54.42848 9.90349 34968 ft 460 kts 360°
2026-05-04 07:42 54.49223 9.91320 34962 ft 460 kts 360°
2026-05-04 07:42 54.55602 9.92299 34958 ft 460 kts 360°
2026-05-04 07:43 54.61973 9.93273 34975 ft 460 kts
2026-05-04 07:43 54.68356 9.94245 34956 ft 460 kts 360°
2026-05-04 07:44 54.74738 9.95221 34947 ft 460 kts
2026-05-04 07:44 54.81115 9.96336 34943 ft 464 kts
2026-05-04 07:45 54.87432 9.98850 34978 ft 465 kts
2026-05-04 07:45 54.93711 10.01456 34962 ft 464 kts
2026-05-04 07:46 54.99995 10.04053 34959 ft 464 kts
2026-05-04 07:46 55.06276 10.06653 34956 ft 464 kts
2026-05-04 07:47 55.12560 10.09269 34961 ft 464 kts
2026-05-04 07:49 55.37614 10.19781 34945 ft 463 kts
2026-05-04 07:49 55.43831 10.22412 34927 ft 462 kts
2026-05-04 07:50 55.50121 10.25078 34914 ft 462 kts
2026-05-04 07:50 55.56372 10.27742 34913 ft 462 kts
2026-05-04 07:51 55.62576 10.30401 34913 ft 462 kts
2026-05-04 07:51 55.68822 10.33076 34904 ft 462 kts
2026-05-04 07:52 55.75068 10.35757 34904 ft 462 kts
2026-05-04 07:52 55.81322 10.38451 34903 ft 462 kts
2026-05-04 07:54 56.06289 10.49315 34894 ft 462 kts
2026-05-04 07:55 56.12526 10.52059 34890 ft 462 kts
2026-05-04 07:55 56.18767 10.54805 34885 ft 461 kts
2026-05-04 07:56 56.25003 10.57561 34871 ft 461 kts
2026-05-04 07:56 56.31240 10.60321 34878 ft 461 kts
2026-05-04 07:57 56.37474 10.63092 34871 ft 461 kts
2026-05-04 07:57 56.43704 10.65869 34881 ft 460 kts
2026-05-04 07:58 56.49919 10.68654 34869 ft 460 kts
2026-05-04 07:58 56.56132 10.71447 34866 ft 460 kts
2026-05-04 07:59 56.62345 10.74241 34856 ft 460 kts
2026-05-04 07:59 56.68560 10.77050 34863 ft 460 kts
2026-05-04 08:00 56.74763 10.79867 34852 ft 460 kts
2026-05-04 08:02 56.99556 10.91221 34840 ft 461 kts
2026-05-04 08:02 57.05773 10.94092 34830 ft 461 kts
2026-05-04 08:03 57.11998 10.96976 34826 ft 461 kts
2026-05-04 08:03 57.18213 10.99876 34849 ft 461 kts
2026-05-04 08:04 57.24441 11.02809 34822 ft 462 kts
2026-05-04 08:04 57.30682 11.05714 34816 ft 462 kts
2026-05-04 08:05 57.36921 11.08622 34808 ft 462 kts
2026-05-04 08:05 57.43162 11.11558 34808 ft 463 kts
2026-05-04 08:06 57.49401 11.14503 34812 ft 463 kts
2026-05-04 08:06 57.55650 11.17467 34800 ft 463 kts
2026-05-04 08:08 57.79669 11.33487 34793 ft 468 kts 19°
2026-05-04 08:11 58.06601 11.55247 34784 ft 469 kts 19°
2026-05-04 08:11 58.15639 11.62300 34773 ft 464 kts 10°
2026-05-04 08:12 58.18788 11.63343 34768 ft 456 kts 357°
2026-05-04 08:12 58.21911 11.63112 34774 ft 447 kts 346°
2026-05-04 08:12 58.28018 11.61166 34772 ft 445 kts 344°
2026-05-04 08:13 58.34122 11.59206 34767 ft 445 kts 344°
2026-05-04 08:13 58.40238 11.57291 34770 ft 445 kts 344°
2026-05-04 08:14 58.46350 11.55396 34766 ft 445 kts 345°
2026-05-04 08:16 58.70838 11.47738 34263 ft 442 kts 344°
2026-05-04 08:16 58.73881 11.46777 33515 ft 443 kts 344°
2026-05-04 08:16 58.76913 11.45820 32846 ft 440 kts 344°
2026-05-04 08:17 58.79909 11.44869 32280 ft 434 kts 344°
2026-05-04 08:17 58.82874 11.43928 31779 ft 429 kts 344°
2026-05-04 08:17 58.85802 11.42998 31209 ft 424 kts 344°
2026-05-04 08:17 58.88695 11.42035 30666 ft 419 kts 343°
2026-05-04 08:19 59.07633 11.35327 27070 ft 378 kts 342°
2026-05-04 08:19 59.10201 11.34419 26585 ft 373 kts 342°
2026-05-04 08:20 59.12742 11.33515 26126 ft 370 kts 341°
2026-05-04 08:20 59.15266 11.32610 25665 ft 368 kts 341°
2026-05-04 08:20 59.17804 11.31906 25249 ft 371 kts 348°
2026-05-04 08:20 59.20360 11.31851 24856 ft 373 kts 353°
2026-05-04 08:21 59.22983 11.32007 24351 ft 371 kts 354°
2026-05-04 08:21 59.25519 11.32189 23867 ft 369 kts 354°
2026-05-04 08:21 59.28074 11.32372 23394 ft 366 kts 354°
2026-05-04 08:21 59.30612 11.32549 22842 ft 363 kts 354°
2026-05-04 08:22 59.33126 11.32718 22304 ft 360 kts 354°
2026-05-04 08:22 59.35624 11.32886 21762 ft 357 kts 354°
2026-05-04 08:24 59.51870 11.33968 18117 ft 369 kts 354°
2026-05-04 08:24 59.54432 11.34131 17664 ft 374 kts 355°
2026-05-04 08:24 59.57024 11.34315 17254 ft 372 kts 355°
2026-05-04 08:24 59.59601 11.34502 16868 ft 369 kts 355°
2026-05-04 08:25 59.62161 11.34687 16496 ft 367 kts 355°
2026-05-04 08:25 59.64706 11.34863 16118 ft 364 kts 355°
2026-05-04 08:25 59.67236 11.35032 15708 ft 369 kts 355°
2026-05-04 08:25 59.69812 11.35207 15306 ft 369 kts 355°
2026-05-04 08:26 59.72362 11.35378 14895 ft 365 kts 355°
2026-05-04 08:27 59.89681 11.36565 11834 ft 346 kts 356°
2026-05-04 08:28 59.92078 11.36732 11389 ft 343 kts 356°
2026-05-04 08:28 59.94435 11.36894 10942 ft 335 kts 356°
2026-05-04 08:28 59.96734 11.37054 10512 ft 326 kts 356°
2026-05-04 08:28 59.98976 11.37213 10113 ft 319 kts 356°
2026-05-04 08:29 60.01167 11.37368 9690 ft 311 kts 356°
2026-05-04 08:29 60.03305 11.37515 9230 ft 304 kts 356°
2026-05-04 08:29 60.05404 11.37662 8768 ft 299 kts 357°
2026-05-04 08:31 60.18973 11.38621 6235 ft 263 kts 358°
2026-05-04 08:33 60.31590 11.39537 4941 ft 243 kts 358°
2026-05-04 08:33 60.33218 11.39662 4946 ft 229 kts 358°
2026-05-04 08:35 60.41219 11.32539 5022 ft 197 kts 261°
2026-05-04 08:35 60.40853 11.29862 5009 ft 198 kts 257°
2026-05-04 08:35 60.40491 11.27176 4987 ft 197 kts 257°
2026-05-04 08:35 60.39899 11.24665 4983 ft 203 kts 234°
2026-05-04 08:37 60.32063 11.19175 3250 ft 189 kts 201°
2026-05-04 08:37 60.30809 11.18445 2971 ft 185 kts 200°
2026-05-04 08:37 60.29581 11.17731 2713 ft 183 kts 201°
2026-05-04 08:38 60.28361 11.17021 2485 ft 182 kts 202°
2026-05-04 08:38 60.27206 11.16351 2229 ft 166 kts 202°
2026-05-04 08:38 60.26162 11.15757 1997 ft 148 kts 201°
2026-05-04 08:40 60.19902 11.12127 727 ft 135 kts 202°
2026-05-04 08:40 60.19086 11.11642 689 ft 99 kts 196°
2026-05-04 08:40 60.18662 11.11405 682 ft 25 kts 195°
2026-05-04 08:41 60.18510 11.11277 683 ft 16 kts 213°
2026-05-04 08:41 60.18438 11.11104 686 ft 11 kts 262°
2026-05-04 08:41 60.18446 11.10982 681 ft 10 kts 288°
2026-05-04 08:41 60.18468 11.10838 684 ft 8 kts 287°
2026-05-04 08:42 60.18514 11.10762 684 ft 11 kts
2026-05-04 08:42 60.18601 11.10802 686 ft 14 kts 16°
2026-05-04 08:42 60.18702 11.10861 688 ft 16 kts 16°
2026-05-04 08:42 60.18800 11.10919 684 ft 14 kts 17°
2026-05-04 08:43 60.18902 11.10980 686 ft 16 kts 16°
2026-05-04 08:43 60.19018 11.11049 688 ft 18 kts 16°
2026-05-04 08:43 60.19123 11.11110 684 ft 15 kts 15°
2026-05-04 08:43 60.19232 11.11171 688 ft 17 kts 15°
2026-05-04 08:44 60.19328 11.11227 686 ft 14 kts 16°
2026-05-04 08:44 60.19406 11.11242 688 ft 12 kts 322°
2026-05-04 08:46 60.19595 11.10232 683 ft 7 kts 285°
2026-05-04 08:46 60.19601 11.10187 690 ft 0 kts 287°
2026-05-04 08:46 60.19601 11.10185 690 ft 0 kts 287°